TimeEST,TemperatureF,Dew PointF,Humidity,Sea Level PressureIn,VisibilityMPH,Wind Direction,Wind SpeedMPH,Gust SpeedMPH,PrecipitationIn,Events,Conditions,WindDirDegrees,DateUTC
12:51 AM,35.1,34.0,96,30.25,4.0,ESE,4.6,-,0.06,Rain,Light Rain,110,2013-01-28 05:51:00
1:51 AM,36.0,36.0,100,30.24,3.0,Calm,Calm,-,0.09,Rain,Light Rain,0,2013-01-28 06:51:00
2:14 AM,35.6,35.6,100,30.22,1.5,Calm,Calm,-,0.02,Rain,Light Rain,0,2013-01-28 07:14:00
2:51 AM,36.0,36.0,100,30.23,2.0,Calm,Calm,-,0.03,Rain,Light Rain,0,2013-01-28 07:51:00
3:00 AM,37.4,35.6,93,30.21,3.0,Calm,Calm,-,0.00,,Overcast,0,2013-01-28 08:00:00
3:17 AM,37.4,35.6,93,30.21,2.5,Calm,Calm,-,0.00,Rain,Light Rain,0,2013-01-28 08:17:00
3:28 AM,37.4,35.6,93,30.20,3.0,Calm,Calm,-,0.00,Rain,Light Rain,0,2013-01-28 08:28:00
3:51 AM,37.0,37.0,100,30.23,3.0,Calm,Calm,-,0.00,Rain,Light Rain,0,2013-01-28 08:51:00
4:51 AM,48.9,37.9,66,30.21,7.0,South,3.5,-,0.01,,Mostly Cloudy,180,2013-01-28 09:51:00
5:51 AM,57.0,37.9,49,30.19,10.0,SSW,5.8,-,N/A,,Clear,200,2013-01-28 10:51:00
6:51 AM,57.9,39.0,49,30.20,10.0,South,8.1,-,N/A,,Partly Cloudy,190,2013-01-28 11:51:00
7:51 AM,57.0,39.0,51,30.19,10.0,SSW,9.2,-,N/A,,Mostly Cloudy,200,2013-01-28 12:51:00
8:51 AM,59.0,39.0,48,30.18,10.0,South,11.5,-,N/A,,Overcast,190,2013-01-28 13:51:00
9:51 AM,51.8,39.9,64,30.16,10.0,South,11.5,-,N/A,,Overcast,180,2013-01-28 14:51:00
10:51 AM,51.8,41.0,67,30.18,10.0,SSW,8.1,18.4,N/A,,Scattered Clouds,210,2013-01-28 15:51:00
11:51 AM,58.3,44.1,59,30.17,10.0,SSW,11.5,20.7,N/A,,Overcast,200,2013-01-28 16:51:00
12:51 PM,60.8,46.0,58,30.13,10.0,SSW,12.7,19.6,N/A,,Mostly Cloudy,210,2013-01-28 17:51:00
1:51 PM,60.8,46.0,58,30.11,5.0,WSW,13.8,25.3,0.00,Rain,Rain,240,2013-01-28 18:51:00
2:46 PM,55.4,50.0,82,30.11,1.8,SW,8.1,19.6,0.07,Rain,Rain,220,2013-01-28 19:46:00
2:47 PM,55.4,50.0,82,30.11,2.0,SW,8.1,19.6,0.08,Rain,Rain,220,2013-01-28 19:47:00
2:51 PM,55.4,50.0,82,30.11,2.0,SSW,8.1,19.6,0.09,Rain,Rain,210,2013-01-28 19:51:00
3:49 PM,53.6,51.8,94,30.11,6.0,SSW,9.2,-,0.02,Rain,Light Rain,210,2013-01-28 20:49:00
3:51 PM,53.6,51.8,94,30.11,6.0,SSW,11.5,-,0.02,Rain,Light Rain,210,2013-01-28 20:51:00
4:51 PM,53.6,51.8,94,30.12,6.0,SW,8.1,-,0.00,Rain,Light Rain,230,2013-01-28 21:51:00
5:51 PM,53.6,51.8,94,30.11,6.0,SSW,6.9,-,0.00,,Overcast,210,2013-01-28 22:51:00
6:51 PM,53.6,51.8,94,30.12,6.0,SSW,6.9,-,N/A,,Overcast,200,2013-01-28 23:51:00
7:51 PM,53.6,51.8,94,30.13,4.0,SSW,5.8,-,0.04,Rain,Light Rain,200,2013-01-29 00:51:00
8:51 PM,53.6,51.8,94,30.12,5.0,SSW,8.1,-,0.00,,Overcast,200,2013-01-29 01:51:00
9:51 PM,53.6,51.8,94,30.12,5.0,SSW,5.8,-,0.00,,Overcast,200,2013-01-29 02:51:00
10:51 PM,53.6,51.8,94,30.12,5.0,SSW,5.8,-,N/A,,Overcast,200,2013-01-29 03:51:00
11:51 PM,69.1,48.9,49,30.10,10.0,SSW,6.9,-,N/A,,Overcast,210,2013-01-29 04:51:00